Regional Weather Roundup
Issued by NWS Wakefield, VA

Home | Current Version | Previous Version | Text Only | Print | Product List | Glossary Off
Versions: 1 2 3 4 5 6 7 8 9 10 11 12 13 14 15 16 17 18 19 20 21 22 23 24 25 26 27 28 29 30 31 32 33 34 35 36 37 38 39 40 41 42 43 44 45 46 47 48 49 50

000
ASUS41 KAKQ 212310
RWRAKQ

REGIONAL WEATHER ROUNDUP
NATIONAL WEATHER SERVICE WAKEFIELD VA
700 PM EDT MON JUL 21 2014

Note: "fair" indicates few or no clouds below 12,000 feet with no
significant weather and/or obstructions to visibility. * = Denotes
station may not report precipitation (e.g., rain,snow,etc.),
thunder or fog.

VAZ042-051-052>054-056-220000-
NORTHERN VIRGINIA

CITY           SKY/WX    TMP DP  RH WIND       PRES   REMARKS
WASH NATIONAL  CLOUDY    82  66  58 SE6       30.16R
DULLES         PTSUNNY   78  68  71 S7        30.16R
FORT BELVOIR   PTSUNNY   79  69  71 SE5       30.17
QUANTICO       PTSUNNY   79  68  69 SE9       30.16S
FREDERICKSBRG* PTSUNNY   80  71  73 SE5       30.15R
STAFFORD*      PTSUNNY   78  71  78 SE3       30.20R
WARRENTON      PTSUNNY   79  76  90 CALM      30.16R
CULPEPER*      PTSUNNY  N/A N/A N/A CALM      30.16S
MANASSAS*      PTSUNNY   79  70  73 S12       30.15S
LEESBURG*      CLOUDY    81  70  69 SE9       30.16S
WINCHESTER     PTSUNNY   79  68  69 SE10      30.16R
$$

VAZ048-049-060>072-079>083-220000-
CENTRAL AND SOUTH CENTRAL VIRGINIA...AND NORTH CENTRAL NORTH CAROLINA

CITY           SKY/WX    TMP DP  RH WIND       PRES   REMARKS
RICHMOND       CLOUDY    80  70  71 SE7       30.16S
CHESTERFIELD*  CLOUDY   N/A N/A N/A SE6       30.17S
HANOVER        CLOUDY    79  70  74 SE3       30.17S
TAPPAHANNOCK*  CLOUDY    76  67  74 E5        30.17S
CHARLOTTSVILLE CLOUDY    74  71  91 W3        30.16S
ORANGE*        PTSUNNY   77  70  78 E5        30.17R
LOUISA*        PTSUNNY   79  72  78 SE3       30.15R
FARMVILLE*     CLOUDY    79  70  73 SE6       30.13S
SOUTH HILL*    CLOUDY    75  75 100 CALM      30.20R
ROANOKE RAPIDS LGT RAIN  68  64  88 E5        30.15S
RALEIGH        CLOUDY    77  72  84 SE5       30.13F
$$

VAZ088>098-220000-
SOUTHEAST VIRGINIA

CITY           SKY/WX    TMP DP  RH WIND       PRES   REMARKS
NORFOLK        CLOUDY    76  69  79 E8        30.16S
VIRGINIA BEACH CLOUDY    76  69  79 E8        30.16S
NORFOLK NAVAL  CLOUDY    77  71  82 E10       30.18S
WEST POINT*    CLOUDY    80  70  71 SE6       30.18R
NEWPORT NEWS   CLOUDY    79  70  74 E8        30.17S
LANGLEY AFB    CLOUDY    76  73  91 E8        30.16S
FORT EUSTIS    CLOUDY    77  70  79 SE7       30.15R
WILLIAMSBURG*  CLOUDY    79  72  78 CALM      30.18R
FRANKLIN*      CLOUDY    75  73  94 E3        30.16R
WAKEFIELD      CLOUDY    78  71  79 CALM      30.16S
$$

VAZ020-022-025-037-045-220000-
WESTERN AND SOUTHWEST VIRGINIA

CITY           SKY/WX    TMP DP  RH WIND       PRES   REMARKS
STAUNTON*      CLOUDY    77  67  72 S7        30.20R
HOT SPRINGS VA CLOUDY    66  62  87 SE6       30.30S
LYNCHBURG      CLOUDY    77  70  79 SE7       30.17S
DANVILLE       CLOUDY    76  71  85 E7        30.15F
MARTINSVILLE   CLOUDY    78  71  78 E5        30.18S
ROANOKE        CLOUDY    77  67  71 SE10      30.18S
BLACKSBURG     CLOUDY    75  70  83 SE6       30.23S HAZE
DUBLIN*        CLOUDY    76  68  76 SE8       30.21S
MARION*        CLOUDY    74  70  87 E8        30.23R
HILLSVILLE*    CLOUDY    71  66  84 SE3       30.23S
RICHLANDS*     CLOUDY    79  69  71 SE6       30.18S
WISE*          CLOUDY    77  63  61 S6        30.19R
ABINGDON*      CLOUDY    79  67  68 S5        30.16R
$$

MDZ021>025-VAZ099-100-220000-
SOUTHERN MARYLAND AND THE DELMARVA PENINSULA

CITY           SKY/WX    TMP DP  RH WIND       PRES   REMARKS
PATUXENT RIVER PTSUNNY   77  68  73 S7        30.16S
BAY BRIDGE APT   N/A     81  64  57 S3        30.16S
LEONARDTOWN    PTSUNNY   77  64  65 S3        30.18S
DOVER          MOSUNNY   75  65  70 SE7       30.16S
GEORGETOWN     MOSUNNY   76  66  71 E14       30.18S
EASTON         PTSUNNY   81  68  65 SE5       30.20S
CAMBRIDGE      PTSUNNY   81  63  54 SE3       30.16S
SALISBURY      NOT AVBL
OCEAN CITY     MOSUNNY   73  67  81 E7        30.18S
WALLOPS ISLAND MOSUNNY   76  69  79 E8        30.18S
ACCOMACK*        N/A     73  66  78 SE5       30.17S
$$

NCZ012>017-030>032-220000-
EASTERN NORTH CAROLINA

CITY           SKY/WX    TMP DP  RH WIND       PRES   REMARKS
ELIZABETH CITY CLOUDY    75  72  88 E7        30.16S
AHOSKIE*       CLOUDY    76  71  84 SE3       30.15S
EDENTON*       CLOUDY    75  73  92 NE3       30.15R
CURRITUCK*     CLOUDY    77  69  75 E5        30.17S
KILL DEVIL HLS CLOUDY    75  72  91 E3        30.14F
MANTEO         NOT AVBL
CAPE HATTERAS  CLOUDY    79  73  82 E9        30.14R
GOLDSBORO      CLOUDY    76  75  98 E3        30.11F
WASHINGTON     CLOUDY    76  74  92 CALM      30.14S
GREENVILLE     CLOUDY    77  73  88 CALM      30.14F
NEW BERN       LGT RAIN  79  75  89 CALM      30.14R
WILMINGTON     CLOUDY    74  71  91 CALM      30.12R
$$

VAZ048-220000-
ELSEWHERE

CITY           SKY/WX    TMP DP  RH WIND       PRES   REMARKS
HARRISBURG PA  MOSUNNY   80  67  64 SE3       30.15S
BALTIMORE      PTSUNNY   80  64  58 SE7       30.15S
ANNAPOLIS      CLOUDY    80  67  64 SE6       30.16S
ANDREWS AFB    PTSUNNY   78  68  69 E6        30.17R
WILMINGTON DE  MOSUNNY   78  67  68 S14       30.17R
PHILADELPHIA   PTSUNNY   82  64  54 S12       30.15S
WILDWOOD NJ*   MOSUNNY   73  59  60 SE7       30.20S
ATLANTIC CITY  MOSUNNY   75  62  64 S8        30.19S
HENDERSON NC   CLOUDY    76  70  81 E3        30.14S
GREENSBORO     CLOUDY    76  70  82 E9        30.14S
ROCKY MOUNT    CLOUDY    77  72  84 CALM      30.13F
FAYETTEVILLE   LGT RAIN  74  72  93 NE6       30.12R
CHARLOTTE      CLOUDY    76  69  79 E9        30.11F
$$

VAZ100-220000-
MARINE

STATION/POSITION TIME  TEMP    WIND        PRES    WAVE   SWELL
                       AIR SEA DIR/SP/G            HT/PER HT/PER
                 (UTC) (F)     (DEG/KT/KT) (MB)    (FT/S) (FT/S)
44066 TX TWR #4  2300   71 73  320/  2/  4 1021.7R   3/ 8   3/ 8
CAPE MAY NJ      2300   73 76  120/  4/  5 1022.1F
LEWES DE         2300   73 72  140/  6/  8 1022.0F
15NM E FENWICK I 2200   73 75              1022.1S   3/ 6
OCEAN-CITY-INLET 2300   73 70   90/  6/  7 1021.7R
WACHAPREAGUE VA  2300   74 79   90/  6/  8 1021.6R
THOMAS POINT MD  2300   79 80  200/  5/  6 1021.8S
GOOSES REEF MD   2300   79     190/  8/ 10 1021.7S
COVE POINT MD    2300   77     190/  9/ 11 1021.2R
SOLOMONS ISLAND  2300      82                N/A
BISHOPS HEAD MD  2300   79 81  210/  6/  8 1021.0R
PINEY POINT MD   2300          170/  8/  9   N/A
POTOMAC MD       2300   78     160/  8/ 10 1020.5S
CAMBRIDGE MD     2300   81 80   90/  4/  6 1021.1S
LEWISETTA VA     2300   78 80  160/  6/  7 1021.2R
RAPPAHANNOCK LGT 2300          110/ 10/ 12 1022.0R
STINGRAY PT      2300   77     140/ 12/ 14 1020.6R
YORK RVR RNG VA  2300   76     130/ 10/ 11 1021.0R
YORKTOWN VA      2300   76 80  130/  7/  9 1021.3R
JAMESTOWN VA     2300   75     130/  8/ 12   N/A
DOMINION TERM VA 2300   75      70/ 11/ 14 1021.5R
KIPTOPEKE VA     2300      79  110/  8/ 10   N/A
CHES BAY BRIDGE  2300   74 74   60/ 11/ 12 1020.9S
CAPE HENRY VA    2300   74      70/ 11/ 12 1020.3R
WILLOUBY STN VA  2300           90/ 11/ 12 1020.7R
S CRANEY ISL VA  2300           80/  6/  8 1021.4R
CAPE HENRY BUOY  2200      76                N/A     3/ 6
1ST LANDING BUOY 2300   75      70/ 10/ 12 1021.1R
CAPE CHARLES BUO 2200      74                N/A     3/ 7
OFFSHORE WE BUOY 2200      77                N/A     4/ 7
64NM E OF VA BCH 2300   76 77   50/  6/  8 1021.1F   3/ 7   3/ 7
DUCK PIER NC     2300   75 76   80/  8/  9 1020.4R
44056 DUCK FRF   2200                        N/A     2/ 8
OREGON INLET NC  2300   75 78   30/  8/ 10 1020.9S
HATTERAS NC      2300   78 81   80/  8/ 10 1021.0S
DIAMOND SHLS NC  2300          VRB 16/ 19  1020.2R   3/ 7   3/ 7
CAPE LOOKOUT NC  2200   76      50/  5/  6 1019.6F
$$



USA.gov is the U.S. government's official web portal to all federal, state and local government web resources and services.